Regional Weather Roundup
Issued by NWS Boston, MA

Current Version | Previous Version | Text Only | Print | Product List | Glossary Off
Versions: 1 2 3 4 5 6 7 8 9 10 11 12 13 14 15 16 17 18 19 20 21 22 23 24 25 26 27
000 ASUS41 KBOX 230910 RWRBOX REGIONAL WEATHER ROUNDUP NATIONAL WEATHER SERVICE TAUNTON MA 500 AM EDT THU OCT 23 2014 NOTE: "FAIR" INDICATES FEW OR NO CLOUDS BELOW 12,000 FEET WITH NO SIGNIFICANT WEATHER AND/OR OBSTRUCTIONS TO VISIBILITY. THE FOLLOWING OBSERVATION LOCATIONS DO NOT REPORT PRESENT WEATHER...PROVINCETOWN... SMITHFIELD...BLOCK ISLAND...KEENE...AND OXFORD. MAZALL-231000- EASTERN MASSACHUSETTS CITY SKY/WX TMP DP RH WIND PRES REMARKS BOSTON LGT RAIN 51 50 96 N23G40 29.70F FOG BEVERLY LGT RAIN 51 49 92 N16G35 29.70F FOG LAWRENCE LGT RAIN 49 47 93 N15G25 29.75F FOG BEDFORD HVY RAIN 47 47 100 N12G18 29.73S FOG BLUE HILL N/A 48 48 100 N18G31 29.67F NORWOOD RAIN 50 48 93 N13G24 29.67F FOG MARSHFIELD NOT AVBL PLYMOUTH LGT RAIN 57 56 96 NE17G26 29.62R FOG TAUNTON CLOUDY 54 52 93 N9 29.62S NEW BEDFORD LGT RAIN 54 53 97 N14G29 29.54F FOG $$ MAZALL-231000- CAPE COD AND THE ISLANDS CITY SKY/WX TMP DP RH WIND PRES REMARKS FALMOUTH CLOUDY 59 57 94 E9 29.56F HYANNIS LGT RAIN 60 58 92 E8 29.56R CHATHAM LGT RAIN 57 56 96 NE13G18 29.55F PROVINCETOWN CLOUDY 57 3 11 NE16G24 29.61S NANTUCKET CLOUDY 58 56 93 NE8 29.51F MARTHAS VNYRD CLOUDY 60 59 96 N15 29.50F $$ MAZALL-231000- CENTRAL AND WESTERN MASSACHUSETTS CITY SKY/WX TMP DP RH WIND PRES REMARKS WORCESTER RAIN 45 44 97 N18G32 29.70F FOG FITCHBURG RAIN 48 45 89 N12G20 29.77F FOG ORANGE HVY RAIN 47 46 97 N12 29.78F FOG SPRINGFIELD RAIN 48 46 93 N18 29.71F WESTFIELD LGT RAIN 50 46 86 N20G29 29.73F NORTH ADAMS LGT RAIN 45 44 97 W8 29.82R PITTSFIELD HVY RAIN 47 45 93 N8 29.77R FOG $$ RIZALL-231000- RHODE ISLAND CITY SKY/WX TMP DP RH WIND PRES REMARKS PROVIDENCE CLOUDY 51 47 86 N23G37 29.65R NEWPORT LGT RAIN 53 50 89 N20 29.60S FOG BLOCK ISLAND CLOUDY 54 48 82 N18G30 29.57F SMITHFIELD CLOUDY 46 39 76 N18G31 29.64R WESTERLY CLOUDY 52 47 83 N17G29 29.61F $$ CTZALL-231000- CONNECTICUT CITY SKY/WX TMP DP RH WIND PRES REMARKS BRADLEY INTL LGT RAIN 51 46 83 N20G26 29.70F HARTFORD CLOUDY 50 45 83 N16G24 29.71F BRIDGEPORT CLOUDY 52 47 83 N29G36 29.65S DANBURY CLOUDY 51 44 77 N8G22 29.72S GROTON MOCLDY 50 46 86 N21G30 29.61S NEW HAVEN LGT RAIN 52 46 80 N25G38 29.64S CHESTER NOT AVBL MERIDEN CLOUDY 50 45 83 N17G26 29.69F WILLIMANTIC CLOUDY 51 44 77 N16G25 29.68F OXFORD CLOUDY 50 41 71 N22G28 29.69F $$ MEZ002-015-021-024-NHZ003-005-008-011-012-014-VTZ005-008-231000- NORTHERN NEW ENGLAND CITY SKY/WX TMP DP RH WIND PRES REMARKS PORTLAND ME HVY RAIN 49 46 90 NE23G32 29.84F FOG BANGOR ME CLOUDY 48 45 89 NE17G26 29.98F CONCORD NH LGT RAIN 47 45 93 N17G25 29.80F FOG MANCHESTER NH LGT RAIN 49 45 86 N18 29.75F FOG NASHUA NH RAIN 48 46 93 NW10 29.77F FOG PORTSMOUTH NH LGT RAIN 49 47 92 N23G36 29.74F JAFFREY NH HVY RAIN 45 44 97 VRB6 29.80R FOG KEENE NH CLOUDY 48 39 71 N12 29.81F BURLINGTON VT CLOUDY 45 36 70 N16 30.00F MT. WASHINGTON LGT RAIN 32 32 100 E61G70 N/A VSB 1/16WCI 13 $$ NYZ052-076-231000- EASTERN NEW YORK CITY SKY/WX TMP DP RH WIND PRES REMARKS ALBANY LGT RAIN 47 44 90 N12 29.86F NEW YORK CITY LGT RAIN 52 48 86 N17 29.69F $$ ANZALL-231000- MARINE OBSERVATIONS STATION/POSITION TIME TEMP WIND PRES VSBY WAVE AIR SEA DIR/SP/G HT/PER (UTC) (F) (DEG/KT/KT) (MB) (MI) (FT/S) BOSTON BUOY NOT AVBL BUZZARDS BAY NOT AVBL NANTUCKET SOUND NOT AVBL MASS BAY-STELLWA NOT AVBL ISLE OF SHOALS NOT AVBL S OF BLOCK IS NOT AVBL $$ ......................KEY......................... SKY/WX - SKY CONDITION/PRESENT WEATHER TMP - TEMPERATURE IN FAHRENHEIT DWPT - DEWPOINT IN FAHRENHEIT RH - RELATIVE HUMIDITY IN PERCENT WIND - DIRECTION AND SPEED IN MPH PRES - MEAN SEA LEVEL PRESSURE IN INCHES OF HG WCI - WIND CHILL INDEX VSB - VISIBILITY IN MILES HX - HEAT INDEX TC - TEMPERATURE IN CELSIUS VRB - VARIABLE WIND DIRECTION N/A - NOT AVAILABLE

USA.gov is the U.S. government's official web portal to all federal, state and local government web resources and services.